Regional Weather Roundup
Issued by NWS

Home | Current Version | Previous Version | Graphics & Text | Print | Product List | Glossary On
Versions: 1 2 3 4 5 6 7 8 9 10 11 12 13 14 15 16 17 18 19 20 21 22 23 24 25 26 27
000
ASUS45 KSLC 231410
RWRUT

UTAH REGIONAL WEATHER ROUNDUP
NATIONAL WEATHER SERVICE SALT LAKE CITY UT
800 AM MDT THU MAR 23 2017

UTZ001>011-023>025-231500-

NORTHERN UTAH

CITY           SKY/WX    TMP DP  RH WIND       PRES   REMARKS
BRIGHAM CITY     N/A     43  36  76 N17G25    29.75R
DUGWAY         LGT RAIN  41  39  91 NW16      29.78
HILL AFB       LGT RAIN  37  36  96 SE5       29.74S WCI  34
LOGAN          LGT RAIN  42  38  85 N9        29.75S
OGDEN          LGT RAIN  38  37  97 S6        29.74R WCI  33
SALT LAKE CITY LGT RAIN  39  37  92 SE8       29.74S WCI  33
WENDOVER       CLOUDY    43  32  65 NW23      29.83R
HEBER CITY     CLOUDY    39  36  87 CALM      29.72R

$$

UTZ011>015-024>027-231500-

CENTRAL/NORTHEAST UTAH

CITY           SKY/WX    TMP DP  RH WIND       PRES   REMARKS
PROVO AIRPORT  LGT RAIN  41  39  93 S9        29.75S
MOAB/CANYONLAN CLOUDY    47  41  80 SW6       29.73R
DELTA          CLOUDY    37  36  93 SW8       29.80R WCI  31
PRICE          LGT RAIN  40  39  97 NE3       29.73S
ROOSEVELT      CLOUDY    41  37  87 CALM      29.75S
VERNAL         CLOUDY    43  39  86 SW3       29.72S

$$

UTZ013>016-019>022-027-231500-

SOUTHERN UTAH

CITY           SKY/WX    TMP DP  RH WIND       PRES   REMARKS
BRYCE CANYON   CLOUDY    30  27  88 NW3       29.81F
CEDAR CITY     CLOUDY    37  33  85 S7        29.81R WCI  32
MILFORD        LGT RAIN N/A N/A N/A NW5       29.80R
ST GEORGE      CLOUDY    46  39  76 SE7       29.84R
HANKSVILLE     MOCLDY    45  37  76 SE5       29.77R
BLANDING       CLOUDY    40  32  73 E3        29.90R

$$

REGIONAL REPORTS     COLORADO/ARIZONA

CITY           SKY/WX    TMP DP  RH WIND       PRES   REMARKS
CRAIG, CO      CLOUDY    41  34  76 N3        29.75S
GRAND JUNCTION CLOUDY    48  42  80 NW7       29.76R
RIFLE, CO      CLEAR     56  24  29 S13G23    29.75R
MONTROSE, CO   CLEAR     47  28  47 W6        29.80R
CORTEZ, CO     CLOUDY    38  33  82 CALM      29.84S
COLORADO CITY    N/A     37  36  93 CALM      29.88R
PAGE, AZ       MOCLDY    45  32  60 SW5       29.80S
GRAND CANYON   FOG       33  33 100 S7        29.87R VSB 3/4 WCI  27
KINGMAN, AZ    PTCLDY    42  30  62 SW13      29.86F
FLAGSTAFF, AZ  CLOUDY    30  30 100 W6        29.87S WCI  24

$$

REGIONAL REPORTS    NEVADA/IDAHO/WYOMING

CITY           SKY/WX    TMP DP  RH WIND       PRES   REMARKS
LAS VEGAS, NV  MOCLDY    53  30  41 CALM      29.83R
ELY, NY        LGT SNOW  32  32 100 NW7       29.85R FOG     WCI  26
ELKO, NV       CLOUDY    38  33  82 CALM      29.92R
POCATELLO, ID  CLOUDY    39  37  92 SW15      29.83R WCI  31
BURLEY, ID     CLOUDY    37  32  82 W13G25    29.85R WCI  29
FORT BRIDGER,  LGT RAIN  36  36 100 W9        29.73S WCI  29
EVANSTON, WY   LGT SNOW  32  30  92 W7        29.72S FOG     WCI  26
ROCK SPRINGS,  CLOUDY    38  34  85 SE14      29.69S WCI  30
KEMMERER, WY   SNOW      32  32 100 N8        29.72S VSB 1/2 WCI  25

$$




USA.gov is the U.S. government's official web portal to all federal, state and local government web resources and services.